| time (UTC) | temp F | wind direction | speed MPH | gust MPH | rain 1hr in | rain 24hr in | rain mn in | humidity % | barometer mb |
| 20260504004017 | 71 | 338 | 3.0 | 6.0 | 0.00 | 0.00 | 0.00 | 16 | 1010.5 |
| 20260504003017 | 71 | 338 | 4.0 | 7.0 | 0.00 | 0.00 | 0.00 | 15 | 1010.5 |
| 20260504002038 | 72 | 0 | 4.0 | 6.0 | 0.00 | 0.00 | 0.00 | 16 | 1011.2 |
| 20260504001017 | 72 | 0 | 3.0 | 7.0 | 0.00 | 0.00 | 0.00 | 15 | 1011.3 |
| 20260504000017 | 72 | 315 | 1.0 | 2.0 | 0.00 | 0.00 | 0.00 | 15 | 1011.3 |
| 20260503235017 | 72 | 315 | 1.0 | 3.0 | 0.00 | 0.00 | 0.00 | 14 | 1010.9 |
| 20260503234017 | 72 | 315 | 2.0 | 4.0 | 0.00 | 0.00 | 0.00 | 14 | 1011.0 |
| 20260503233057 | 72 | 315 | 3.0 | 8.0 | 0.00 | 0.00 | 0.00 | 14 | 1011.1 |
| 20260503232018 | 72 | 315 | 4.0 | 7.0 | 0.00 | 0.00 | 0.00 | 13 | 1011.4 |
| 20260503231017 | 73 | 315 | 3.0 | 7.0 | 0.00 | 0.00 | 0.00 | 14 | 1011.5 |
| 20260503230017 | 73 | 315 | 5.0 | 9.0 | 0.00 | 0.00 | 0.00 | 13 | 1011.6 |
| 20260503225017 | 74 | 315 | 4.0 | 9.0 | 0.00 | 0.00 | 0.00 | 14 | 1011.7 |
| 20260503224017 | 74 | 0.0 | 3.0 | 0.00 | 0.00 | 0.00 | 12 | 1011.9 | |
| 20260503223017 | 74 | 270 | 1.0 | 5.0 | 0.00 | 0.00 | 0.00 | 11 | 1012.0 |
| 20260503222017 | 74 | 248 | 2.0 | 8.0 | 0.00 | 0.00 | 0.00 | 12 | 1012.6 |
| 20260503221017 | 74 | 270 | 3.0 | 6.0 | 0.00 | 0.00 | 0.00 | 14 | 1012.8 |
| 20260503220017 | 73 | 315 | 2.0 | 5.0 | 0.00 | 0.00 | 0.00 | 13 | 1012.7 |
| 20260503215037 | 73 | 270 | 2.0 | 4.0 | 0.00 | 0.00 | 0.00 | 13 | 1012.9 |
| 20260503214017 | 73 | 225 | 1.0 | 3.0 | 0.00 | 0.00 | 0.00 | 11 | 1013.0 |
| 20260503213017 | 73 | 225 | 3.0 | 8.0 | 0.00 | 0.00 | 0.00 | 12 | 1013.3 |
| 20260503212017 | 73 | 158 | 2.0 | 5.0 | 0.00 | 0.00 | 0.00 | 11 | 1013.4 |
| 20260503211017 | 73 | 270 | 3.0 | 7.0 | 0.00 | 0.00 | 0.00 | 12 | 1013.6 |
| 20260503210017 | 73 | 270 | 3.0 | 7.0 | 0.00 | 0.00 | 0.00 | 12 | 1013.8 |
| 20260503205037 | 73 | 248 | 5.0 | 12.0 | 0.00 | 0.00 | 0.00 | 13 | 1014.0 |
| 20260503204017 | 74 | 248 | 5.0 | 12.0 | 0.00 | 0.00 | 0.00 | 12 | 1014.0 |
| 20260503203037 | 74 | 248 | 5.0 | 13.0 | 0.00 | 0.00 | 0.00 | 13 | 1014.2 |
| 20260503202017 | 73 | 0 | 3.0 | 8.0 | 0.00 | 0.00 | 0.00 | 16 | 1014.3 |
| 20260503201018 | 72 | 315 | 3.0 | 7.0 | 0.00 | 0.00 | 0.00 | 14 | 1014.1 |
| 20260503200017 | 71 | 315 | 3.0 | 7.0 | 0.00 | 0.00 | 0.00 | 15 | 1014.4 |
| 20260503195017 | 71 | 315 | 2.0 | 6.0 | 0.00 | 0.00 | 0.00 | 13 | 1014.5 |
| 20260503194017 | 71 | 293 | 3.0 | 6.0 | 0.00 | 0.00 | 0.00 | 15 | 1014.6 |
| 20260503193017 | 71 | 248 | 3.0 | 6.0 | 0.00 | 0.00 | 0.00 | 14 | 1014.7 |
| 20260503192037 | 71 | 248 | 6.0 | 9.0 | 0.00 | 0.00 | 0.00 | 14 | 1014.9 |
| 20260503191017 | 72 | 225 | 5.0 | 11.0 | 0.00 | 0.00 | 0.00 | 14 | 1015.1 |
| 20260503190037 | 73 | 270 | 4.0 | 13.0 | 0.00 | 0.00 | 0.00 | 14 | 1015.5 |
| 20260503185057 | 73 | 90 | 4.0 | 11.0 | 0.00 | 0.00 | 0.00 | 14 | 1016.0 |
| 20260503184037 | 73 | 315 | 2.0 | 5.0 | 0.00 | 0.00 | 0.00 | 16 | 1016.1 |
| 20260503183017 | 71 | 248 | 4.0 | 12.0 | 0.00 | 0.00 | 0.00 | 18 | 1016.1 |
| 20260503182038 | 70 | 248 | 4.0 | 8.0 | 0.00 | 0.00 | 0.00 | 18 | 1015.9 |
| 20260503181037 | 71 | 248 | 3.0 | 5.0 | 0.00 | 0.00 | 0.00 | 21 | 1016.1 |
| 20260503180017 | 71 | 158 | 1.0 | 4.0 | 0.00 | 0.00 | 0.00 | 20 | 1016.1 |
| 20260503175017 | 71 | 248 | 2.0 | 6.0 | 0.00 | 0.00 | 0.00 | 21 | 1016.6 |
| 20260503174017 | 70 | 248 | 2.0 | 5.0 | 0.00 | 0.00 | 0.00 | 20 | 1016.4 |
| 20260503173037 | 69 | 293 | 2.0 | 5.0 | 0.00 | 0.00 | 0.00 | 19 | 1016.5 |
| 20260503172016 | 68 | 225 | 2.0 | 7.0 | 0.00 | 0.00 | 0.00 | 19 | 1016.4 |
| 20260503171016 | 68 | 90 | 1.0 | 4.0 | 0.00 | 0.00 | 0.00 | 18 | 1016.4 |
| 20260503131016 | 58 | 113 | 7.0 | 15.0 | 0.00 | 0.00 | 0.00 | 22 | 1017.0 |
| 20260503081017 | 58 | 90 | 9.0 | 17.0 | 0.00 | 0.00 | 0.00 | 24 | 1018.2 |
| 20260503072016 | 57 | 113 | 10.0 | 19.0 | 0.00 | 0.00 | 0.00 | 27 | 1017.8 |
| 20260503071036 | 57 | 113 | 13.0 | 20.0 | 0.00 | 0.00 | 0.00 | 27 | 1017.4 |
| 20260503055017 | 59 | 113 | 13.0 | 20.0 | 0.00 | 0.00 | 0.00 | 26 | 1017.3 |
| 20260503054037 | 59 | 113 | 12.0 | 19.0 | 0.00 | 0.00 | 0.00 | 25 | 1017.3 |
| 20260503053038 | 59 | 90 | 10.0 | 17.0 | 0.00 | 0.00 | 0.00 | 26 | 1017.3 |
| 20260503052017 | 59 | 113 | 12.0 | 19.0 | 0.00 | 0.00 | 0.00 | 26 | 1017.4 |
| 20260503051017 | 59 | 90 | 13.0 | 21.0 | 0.00 | 0.00 | 0.00 | 26 | 1017.4 |
| 20260503050018 | 59 | 113 | 12.0 | 18.0 | 0.00 | 0.00 | 0.00 | 28 | 1017.4 |
| 20260503045017 | 59 | 113 | 13.0 | 18.0 | 0.00 | 0.00 | 0.00 | 28 | 1017.1 |
| 20260503044037 | 58 | 113 | 13.0 | 18.0 | 0.00 | 0.00 | 0.00 | 29 | 1016.8 |
| 20260503043018 | 59 | 113 | 14.0 | 19.0 | 0.00 | 0.00 | 0.00 | 29 | 1016.8 |
| 20260503042017 | 59 | 113 | 12.0 | 21.0 | 0.00 | 0.00 | 0.00 | 28 | 1017.1 |
| 20260503041017 | 60 | 113 | 11.0 | 17.0 | 0.00 | 0.00 | 0.00 | 27 | 1017.2 |
| 20260503040057 | 60 | 113 | 12.0 | 18.0 | 0.00 | 0.00 | 0.00 | 27 | 1017.1 |
| 20260503035018 | 58 | 90 | 14.0 | 19.0 | 0.00 | 0.00 | 0.00 | 31 | 1016.3 |
| 20260503034017 | 60 | 113 | 13.0 | 19.0 | 0.00 | 0.00 | 0.00 | 29 | 1016.2 |
| 20260503033018 | 60 | 113 | 13.0 | 17.0 | 0.00 | 0.00 | 0.00 | 29 | 1016.2 |
| 20260503032017 | 60 | 113 | 12.0 | 18.0 | 0.00 | 0.00 | 0.00 | 30 | 1015.8 |
| 20260503031058 | 60 | 113 | 10.0 | 15.0 | 0.00 | 0.00 | 0.00 | 30 | 1015.8 |
| 20260503030017 | 60 | 113 | 10.0 | 14.0 | 0.00 | 0.00 | 0.00 | 30 | 1015.7 |
| 20260503025017 | 61 | 113 | 10.0 | 16.0 | 0.00 | 0.00 | 0.00 | 30 | 1015.4 |
| 20260503024018 | 62 | 113 | 8.0 | 13.0 | 0.00 | 0.00 | 0.00 | 29 | 1015.3 |
| 20260503023037 | 63 | 113 | 4.0 | 7.0 | 0.00 | 0.00 | 0.00 | 29 | 1015.2 |
| 20260503022017 | 64 | 113 | 4.0 | 6.0 | 0.00 | 0.00 | 0.00 | 25 | 1015.9 |
| 20260503021018 | 65 | 135 | 2.0 | 4.0 | 0.00 | 0.00 | 0.00 | 24 | 1015.8 |
| 20260503020017 | 66 | 0.0 | 1.0 | 0.00 | 0.00 | 0.00 | 23 | 1016.1 | |
| 20260503015018 | 66 | 0.0 | 2.0 | 0.00 | 0.00 | 0.00 | 22 | 1016.4 | |
| 20260503014017 | 67 | 315 | 2.0 | 5.0 | 0.00 | 0.00 | 0.00 | 21 | 1016.4 |
| 20260503013037 | 67 | 315 | 2.0 | 4.0 | 0.00 | 0.00 | 0.00 | 20 | 1016.4 |
| 20260503012017 | 68 | 270 | 2.0 | 6.0 | 0.00 | 0.00 | 0.00 | 20 | 1016.4 |
| 20260503011016 | 68 | 315 | 2.0 | 6.0 | 0.00 | 0.00 | 0.00 | 20 | 1016.4 |
| 20260503010017 | 68 | 315 | 2.0 | 6.0 | 0.00 | 0.00 | 0.00 | 20 | 1016.4 |
| 20260503005017 | 69 | 315 | 4.0 | 9.0 | 0.00 | 0.00 | 0.00 | 20 | 1016.4 |